HIMAWARI 1 AKM, 59985

Orbit data source: Space-Track

HIMAWARI 1 AKM, 59985 is space debris in GEO originally from a launch on Thu, 14 Jul 1977 UTC launched from the Air Force Eastern Test Range (AFETR). Debris objects in space refer to the collection of defunct objects orbiting the Earth. Examples of debris include non-operational satellites, rocket bodies, and fragments generated from explosions, collisions, or faulty payload assembly.

Not visible in the next 10 days
Identifier
59985, 1977-065GQ
Orbit
GEO
Last TLE update
1 day ago
Origin
Manufacturer
Thiokol/TE
Mission
Spacecraft
Bus & Motor
STAR 27, Unknown motor
Mass
Wet unknown, 24 kg dry
Launch date (UTC)
1977-07-14 (48 years ago)
Launch vehicle
Unknown
Launch site
Air Force Eastern Test Range (AFETR)
Object type
Payload
Rocket body
Debris
Shape & HBR
Unknown
Radar Cross Section
Medium (>0.1 m² and <1 m²)

Expand to show TLE details & history

TLE from 1 day ago
0 HIMAWARI 1 AKM
1 59985U 77065GQ  25181.00729483  .00000028  00000-0  00000-0 0  9991
2 59985   5.0986 278.3575 0272540 111.5607 251.5850  1.01118483 42889
Epoch: 2025-06-30T00:10Z
TLE epoch observation values (Epoch: 2025-06-30T00:10:30.273Z)
Latitude
-0°
Longitude
-2.35678°
Altitude
35,940.425 km
Speed
3.055 km/s
True Right ascension
18h 34m 22s
True Declination
0° 00' 00"
Sunlit
Object was in daylight at epoch
Visualization orbit readout
Latitude
4.85489°
Longitude
105.51729°
Altitude
34,412.783 km
Speed
3.168 km/s
Apparent Right ascension
02h 10m 48s
Apparent Declination
0° 50' 18"
Sunlit
Object is in daylight
Visualization observer readout
Local Sidereal Time
18:28:05
Azimuth
73.507° E
Elevation
-19.982°
Doppler factor
1
Orbital elements
Apogee altitude
36,694.72 km
Perigee altitude
34,409.195 km
Semi-major axis
41,930.094 km
Eccentricity
0.02725
Inclination
5.0986°
RAAN
278.3575°
Arg. of periapsis
111.5607°
True anomaly
Unknown
Mean anomaly
251.585°
Eccentric anomaly
Unknown
Mean motion
0.25279 °/min
Orbital period
1,424.12 mins
BSTAR
0
Loading historical data...
59985 neighbors
Loading maneuver chart data...
Loading SW <> Apogee altitude chart data...

HIMAWARI 1 AKM Visibility

Observer location: undefined°, undefined°

HIMAWARI 1 AKM is likely not visible in the next few days
Span
Click to sort rows by Start time (UTC) header in descending order
Start Az.
Max El. time (UTC)
Max El. Az.
Max El.
End time (UTC)
End Az.
|